Location: Terra Rouge Observatory
(46.0000°N, 62.7500°W)
Time: 17:30:06
(UTC-03:00)

Daily predictions for brighter satellites

Satellite Brightness Start Highest point End
(mag) Time Altitude Azimuth Time Altitude Azimuth Time Altitude Azimuth
COSMO-SKYMED 1 2.5 19:19:59 10° NNE 19:24:20 79° E 19:28:41 10° S
Intercosmos 25 Rocket 4.4 19:18:07 10° S 19:25:20 82° W 19:29:41 10° N
CENTAUR R/B 3.9 19:28:07 10° SE 19:31:10 14° ESE 19:34:22 10° ENE
SL-16 R/B 2.2 19:29:40 10° SSW 19:35:20 75° ESE 19:41:02 10° NNE
NOSS 3-2 (C) 3.6 19:31:31 10° SSW 19:37:27 56° ESE 19:43:56 10° NE
Cosmos 1766 3.2 19:34:55 10° S 19:38:52 74° E 19:42:52 10° NNE
Helios 1B rocket 3.2 19:36:53 10° NE 19:40:33 31° E 19:44:13 10° SSE
METEOR-M 4.2 19:35:51 10° SSE 19:41:06 60° ENE 19:46:23 10° N
Cosmos 1766 Rocket 3.6 19:38:46 10° N 19:43:07 60° ENE 19:47:24 10° SSE
Cosmos 1544 4.1 19:42:54 10° SSE 19:46:04 26° E 19:49:13 10° NNE
Cosmos 1076 Rocket 3.5 19:44:50 10° N 19:49:11 85° E 19:53:32 10° S
Spot 2 Rocket 3.5 19:44:15 10° SSE 19:49:12 63° ENE 19:54:12 10° N
Spot 1 4.1 19:45:50 10° SSE 19:50:30 72° ENE 19:54:56 10° N
Cosmos 1378 3.8 19:46:50 10° NNW 19:50:32 60° W 19:54:12 10° S
Cosmos 2219 Rocket 4.2 19:46:00 10° WSW 19:50:53 29° NW 19:55:48 10° N
CZ-2D R/B 4.4 19:49:20 11° ESE 19:52:19 26° ENE 19:55:35 10° N
ERBS 4.5 19:50:25 10° NNW 19:52:50 17° NNE 19:55:07 11° ENE
Cosmos 2034 Rocket 4.0 19:47:40 10° S 19:53:49 60° E 20:00:03 10° NNE
FENGYUN 3A 4.1 19:49:39 10° SE 19:54:40 42° ENE 19:59:44 10° N
Cosmos 1464 Rocket 3.9 19:48:46 10° S 19:55:00 80° E 20:01:12 10° N
CZ-4C R/B 3.4 19:51:19 10° WSW 19:56:34 44° NW 20:02:31 10° NNE
Cosmos 192 4.3 19:53:31 10° SSW 19:58:29 88° ESE 20:03:30 10° NNE
Cosmos-2242 3.2 19:54:44 10° S 19:58:57 52° E 20:03:15 10° NNE
ATLAS CENTAUR R/B 4.3 19:57:51 10° WNW 20:00:09 15° WSW 20:02:22 10° SW
Meteor 1-28 Rocket 3.2 19:57:17 10° N 20:01:01 84° WNW 20:04:44 10° SSW
Cosmos 2151 4.2 20:01:57 10° NNE 20:05:11 21° ENE 20:06:04 20° E
H-2A R/B 3.4 20:03:53 16° SE 20:06:32 35° ENE 20:10:05 10° N
Cosmos 1805 3.1 20:03:49 10° S 20:07:44 72° E 20:11:41 10° NNE
Cosmos 1953 2.2 20:04:43 10° S 20:08:42 75° E 20:12:41 10° NNE
ALOS 2.4 20:04:52 10° SSE 20:09:24 53° ENE 20:13:58 10° N
USA 215 3.4 20:03:52 10° ENE 20:10:13 51° SE 20:16:32 10° SSW
ISS -1.6 20:09:33 10° S 20:11:24 18° SSE 20:11:24 18° SSE
Cosmos 1943 Rocket 3.5 20:09:59 10° N 20:14:29 24° NE 20:16:35 19° ENE
Cosmos 2369 Rocket 2.6 20:09:04 10° NNW 20:14:29 45° ENE 20:17:56 21° ESE
Cosmos 1408 Rocket 4.2 20:11:39 10° NNW 20:15:56 57° W 20:20:10 10° S
Cosmos 1500 Rocket 3.8 20:11:58 10° N 20:16:17 49° ENE 20:19:50 15° SSE
HJ-1C 3.8 20:13:07 10° S 20:16:27 63° W 20:19:50 10° NNW
Cosmos 1943 3.9 20:13:10 10° SSE 20:17:56 29° ESE 20:22:42 10° NE
Cosmos 1842 Rocket 3.9 20:14:24 10° SSE 20:18:26 40° E 20:22:31 10° NNE
Cosmos 1603 3.6 20:17:08 10° SSW 20:22:49 70° ESE 20:28:34 10° NNE
USA 186 3.5 20:29:27 15° NNE 20:29:27 15° NNE 20:30:01 10° N
Cosmos 1470 2.8 20:27:23 10° S 20:31:09 51° E 20:34:56 10° NNE
SeaSat 1 4.0 20:28:23 10° NE 20:35:13 19° SSE 20:36:57 10° S
SL-8 R/B 4.1 20:28:32 10° SW 20:33:02 43° SSE 20:34:16 35° ESE
Cosmos 1733 3.4 20:33:53 38° SE 20:34:46 46° E 20:38:30 10° NNE
ATLAS CENTAUR R/B 4.1 20:29:27 10° SW 20:35:22 86° NW 20:55:55 10° NE
ERS-1 Rocket 3.7 20:35:21 31° E 20:36:11 33° ENE 20:40:39 10° N
Cosmos 724 4.3 20:31:07 10° SSW 20:37:05 90° WNW 20:43:15 10° NE
Meteor 1-29 3.4 20:35:16 10° N 20:38:46 65° WNW 20:42:14 10° SSW
Resurs 1-3 4.3 20:35:39 10° S 20:39:56 54° W 20:44:16 10° NNW
Cosmos 1110 Rocket 4.4 20:35:39 10° N 20:40:43 43° ENE 20:42:04 36° E
Helios 1A 4.1 20:37:21 10° S 20:41:23 44° W 20:45:26 10° NNW
CZ-4B DEB 3.2 20:41:22 25° S 20:43:05 62° W 20:46:21 10° NNW
Resurs 01 Rocket 3.0 20:39:00 10° SSW 20:43:11 40° W 20:47:24 10° NNW
Cosmos 1674 2.8 20:40:09 10° NNW 20:44:03 78° W 20:46:25 23° S
Cosmos 839 Rocket 4.3 20:36:03 10° NNW 20:44:04 74° NE 20:47:37 30° SE
Cosmos 1743 Rocket 4.1 20:40:44 10° NNW 20:45:08 59° W 20:49:27 10° S
NOSS 3-2 (A) 4.4 20:43:22 10° WSW 20:49:23 50° NW 20:56:01 10° NNE
Meteor 1-16 Rocket 4.2 20:55:06 46° ESE 20:55:37 48° E 21:00:44 10° NNE
Meteor 1-11 4.3 20:50:25 10° N 20:56:10 58° ENE 20:57:48 43° SE
ATLAS 5 CENTAUR R/B 2.8 20:54:06 10° WSW 20:58:49 48° NW 21:04:00 10° NNE
SJ-11-01 4.3 20:58:35 55° E 20:58:54 56° ENE 21:03:31 10° N
Cosmos 2279 Rocket 4.2 21:01:56 45° ESE 21:02:35 46° E 21:08:28 10° NNE
Cosmos 1092 Rocket 4.3 21:00:50 10° NNW 21:06:59 67° W 21:13:04 10° S
GP-B 3.0 21:02:39 10° N 21:07:07 86° W 21:08:19 49° S
Cosmos 1655 Rocket 3.9 21:02:52 10° N 21:09:05 69° E 21:11:00 45° SE
ASTEX 1 4.0 21:05:14 10° N 21:10:03 56° W 21:14:49 10° SSW
Cosmos 1331 Rocket 3.9 21:08:42 10° NNW 21:14:01 71° ENE 21:14:25 67° E
Cosmos 2142 Rocket 4.5 21:09:49 10° S 21:16:13 90° WNW 21:22:39 10° N
Cosmos 1328 4.1 21:13:44 10° NNW 21:17:29 64° WNW 21:17:29 64° WNW
SL-24 R/B - RUBIN 2 4.4 21:12:25 10° NW 21:19:11 79° NE 21:20:28 59° ESE
Cosmos 2026 Rocket 3.8 21:14:17 10° N 21:20:24 90° WSW 21:22:36 43° S
CENTAUR R/B 2.4 21:14:21 10° SSW 21:20:28 78° SE 21:27:25 10° NE
Cosmos 1939 Rocket 4.0 21:22:00 36° N 21:22:00 36° N 21:24:27 10° N
Cosmos 1428 Rocket 4.4 21:17:30 10° N 21:23:46 66° E 21:24:20 63° ESE
Cosmos 1634 Rocket 4.1 21:18:46 10° SSW 21:25:00 74° W 21:31:14 10° N
SL-14 R/B 4.3 21:21:50 10° N 21:24:32 41° N 21:24:32 41° N
Cosmos 1302 Rocket 4.4 21:20:53 10° NNW 21:25:13 49° NNE 21:25:13 49° NNE
H-2A R/B 3.6 21:28:54 27° NNE 21:28:54 27° NNE 21:31:14 10° N
Cosmos 1805 Rocket 4.3 21:23:25 10° N 21:26:35 45° N 21:26:35 45° N
ERBS 4.4 21:26:48 10° NW 21:28:32 26° NNW 21:28:32 26° NNW
SPOT 5 4.3 21:34:30 24° N 21:34:30 24° N 21:36:27 10° N
Envisat 3.1 21:39:20 74° NW 21:39:20 74° NW 21:44:02 10° NNW
Cosmos 2221 4.5 21:44:38 22° N 21:44:38 22° N 21:46:16 10° N
Cosmos 2151 4.3 21:38:44 10° NNW 21:42:37 36° W 21:42:41 36° W
Cosmos 2058 4.3 21:41:15 10° NNW 21:44:02 36° NW 21:44:02 36° NW
H-2A R/B 4.1 21:51:24 17° NNE 21:51:24 17° NNE 21:52:54 10° N
BREEZE-M DEB (TANK) 3.6 21:44:23 10° WNW 21:52:04 56° WSW 21:52:04 56° WSW
USA 215 3.6 21:49:37 27° NE 21:53:19 61° NNW 21:59:44 10° WSW
Meteor 2-20 Rocket 4.5 21:48:44 10° N 21:54:16 72° N 21:54:16 72° N
Meteor 2-20 4.4 21:48:47 10° NNW 21:54:58 79° W 21:54:59 79° W
Cosmos 2369 Rocket 3.6 21:53:25 10° NW 21:58:20 31° WSW 21:59:45 28° SW
Cosmos 1943 Rocket 2.5 21:53:10 10° NNW 21:58:07 62° WNW 21:58:07 62° WNW
Cosmos 1943 4.0 21:56:19 10° SW 22:01:44 47° WNW 22:07:11 10° NNE
SeaSat 1 4.0 22:05:38 10° NNE 22:15:14 - SW 22:08:13 28° N
ERS-1 Rocket 4.4 22:15:22 34° W 22:15:22 34° W 22:19:30 10° NNW
Terra 4.4 22:35:55 14° N 22:35:55 14° N 22:36:36 10° N
CENTAUR R/B 4.1 23:06:09 10° W 23:11:53 32° NNW 23:18:18 10° NNE
